Вернуться в каталог

SL-12 DEB

LostHEO
NORAD 35082·DEBRIS·🇷🇺 Russia

Запущен Apr 4, 1991 с Baikonur Cosmodrome

Loading…

Ближайшие Пролёты (ближайшие 24 часа)

TLE

УстаревшееSource: Space-Track

Эпоха: Aug 27, 2009, 13:58 UTC

1 35082U 91025AC  09239.58221591 -.00000009  00000-0  10000-3 0  9995
2 35082  88.3851 121.6539 5350493  35.9577 267.9309  4.87127215  4338

Отслеживайте SL-12 DEB в реальном времени с AllMySat

Download on the App Store